TimeHST,TemperatureF,Dew PointF,Humidity,Sea Level PressureIn,VisibilityMPH,Wind Direction,Wind SpeedMPH,Gust SpeedMPH,PrecipitationIn,Events,Conditions,WindDirDegrees,DateUTC
12:54 AM,75.9,75.0,97,30.01,10.0,NNE,9.2,-,N/A,,Mostly Cloudy,20,2013-07-22 10:54:00
1:54 AM,77.0,75.0,94,30.00,10.0,North,10.4,-,N/A,,Overcast,10,2013-07-22 11:54:00
2:32 AM,77.0,75.2,94,29.98,10.0,NNE,8.1,-,N/A,,Overcast,20,2013-07-22 12:32:00
2:54 AM,75.9,75.9,100,29.99,10.0,NE,6.9,-,N/A,,Scattered Clouds,40,2013-07-22 12:54:00
3:34 AM,75.2,75.2,100,29.97,10.0,Calm,Calm,-,N/A,,Overcast,0,2013-07-22 13:34:00
3:54 AM,75.9,75.0,97,29.99,10.0,North,3.5,-,N/A,,Overcast,350,2013-07-22 13:54:00
4:14 AM,75.2,75.2,100,29.97,10.0,North,10.4,-,N/A,,Overcast,10,2013-07-22 14:14:00
4:30 AM,75.2,75.2,100,29.97,10.0,North,4.6,-,N/A,,Overcast,10,2013-07-22 14:30:00
4:37 AM,75.2,75.2,100,29.97,9.0,North,5.8,-,N/A,,Overcast,10,2013-07-22 14:37:00
4:46 AM,75.2,75.2,100,29.96,10.0,North,6.9,-,N/A,,Overcast,360,2013-07-22 14:46:00
4:54 AM,75.9,75.9,100,29.98,10.0,North,6.9,-,N/A,,Overcast,350,2013-07-22 14:54:00
5:26 AM,75.2,75.2,100,29.97,10.0,NNE,8.1,-,N/A,,Mostly Cloudy,20,2013-07-22 15:26:00
5:54 AM,73.9,73.9,100,29.99,10.0,Calm,Calm,-,N/A,,Mostly Cloudy,0,2013-07-22 15:54:00
6:54 AM,75.9,75.9,100,30.00,10.0,Calm,Calm,-,N/A,,Scattered Clouds,0,2013-07-22 16:54:00
7:54 AM,81.0,75.9,85,30.01,10.0,ESE,3.5,-,N/A,,Scattered Clouds,110,2013-07-22 17:54:00
8:54 AM,82.9,77.0,82,30.02,10.0,NNE,8.1,-,N/A,,Mostly Cloudy,20,2013-07-22 18:54:00
9:54 AM,86.0,78.1,77,30.01,10.0,ESE,4.6,-,N/A,,Mostly Cloudy,110,2013-07-22 19:54:00
10:54 AM,89.1,77.0,67,30.00,10.0,ENE,5.8,-,N/A,,Mostly Cloudy,70,2013-07-22 20:54:00
11:54 AM,88.0,77.0,70,29.99,10.0,Variable,6.9,-,N/A,,Mostly Cloudy,0,2013-07-22 21:54:00
12:54 PM,88.0,78.1,72,29.97,10.0,Variable,4.6,18.4,N/A,,Partly Cloudy,0,2013-07-22 22:54:00
1:54 PM,89.1,79.0,72,29.96,10.0,NE,13.8,-,N/A,,Mostly Cloudy,50,2013-07-22 23:54:00
2:54 PM,91.0,79.0,68,29.95,10.0,NE,8.1,-,N/A,,Mostly Cloudy,40,2013-07-23 00:54:00
3:54 PM,90.0,79.0,70,29.94,10.0,WNW,11.5,-,N/A,,Scattered Clouds,300,2013-07-23 01:54:00
4:54 PM,87.1,78.1,74,29.94,10.0,NW,5.8,-,N/A,,Scattered Clouds,310,2013-07-23 02:54:00
5:54 PM,84.9,77.0,77,29.95,10.0,North,4.6,-,N/A,,Scattered Clouds,350,2013-07-23 03:54:00
6:54 PM,82.9,77.0,82,29.96,10.0,ENE,5.8,-,N/A,,Scattered Clouds,70,2013-07-23 04:54:00
7:54 PM,82.0,78.1,88,29.99,10.0,ENE,4.6,-,N/A,,Mostly Cloudy,70,2013-07-23 05:54:00
8:54 PM,82.0,77.0,85,30.01,10.0,Calm,Calm,-,N/A,,Scattered Clouds,0,2013-07-23 06:54:00
9:54 PM,81.0,78.1,91,30.02,10.0,East,3.5,-,N/A,,Overcast,80,2013-07-23 07:54:00
10:25 PM,80.6,75.2,84,30.01,10.0,ENE,3.5,-,N/A,,Scattered Clouds,60,2013-07-23 08:25:00
10:38 PM,78.8,75.2,89,30.01,10.0,ENE,4.6,-,N/A,,Mostly Cloudy,70,2013-07-23 08:38:00
10:54 PM,79.0,75.9,90,30.02,10.0,ENE,8.1,-,N/A,,Mostly Cloudy,70,2013-07-23 08:54:00
11:01 PM,78.8,75.2,89,30.00,10.0,ENE,5.8,-,N/A,,Mostly Cloudy,70,2013-07-23 09:01:00
11:51 PM,78.8,75.2,89,30.00,10.0,Calm,Calm,-,N/A,,Mostly Cloudy,0,2013-07-23 09:51:00
11:54 PM,78.1,75.9,93,30.01,10.0,Calm,Calm,-,N/A,,Mostly Cloudy,0,2013-07-23 09:54:00